Location: Newark
(27.9675°N, 86.8869°E)
Time: 03:13:09
(UTC+00:00)

deb Explorer IX - Pass Details

Date: 23 October 2019
Orbit: 546 x 1105 km, 38.8° (Epoch: 20 November)

Event Time Altitude Azimuth Distance (km) Brightness Sun altitude
Rises 14:08:51 0° 275° (W) 3,784 ? -34.4°
Reaches altitude 10° 14:13:18 10° 249° (WSW) 2,904 ? -35.3°
Maximum altitude 14:16:15 13° 224° (SW) 2,721 ? -36.0°
Drops below altitude 10° 14:19:15 10° 199° (SSW) 2,948 ? -36.7°
Enters shadow 14:20:33 - 191° (S) 3,158 ? -36.9°
Sets 14:23:54 0° 174° (S) 3,895 - -37.7°
